EHI
0 0 0 0 0 0 0 0 0 0 0 0 0 0 0 0 0 0 0 0 0 0 0 0 0 0 0 0 0 0 0 0 0 0 0 0 0 0 0 0 0 0 0
0 0 0 0 0 0 0 0 0 0 0 0 0 0 0 0 0 0 0 0 0 0 0 0 0 0 0 0 0 0 0 0 0 0 0 0 0 0 0 0 0 0 0
0 0 0 0 0 0 0 0 0 0 0 0 0 0 0 0 0 0 0 0 0 0 0 0 0 0 0 0 0 0 0 0 0 0 0 0 0 0 0 0 0 0 0
0 0 0 0 0 0 0 0 0 0 0 0 0 0 0 0 0 0 0 0 0 0 0 0 0 0 0 0 0 0 0 0 0 0 0 0 0 0 0 0 0 0 0
0 0 0 0 0 0 0 0 0 0 0 0 0 0 0 0 0 0 0 0 0 0 0 0 0 0 0 0 0 0 0 0 0 0 0 0 0 0 0 0 0 0 0
0 0 0 0 0 0 0 0 0 0 0 0 0 0 0 0 0 0 0 0 0 0 0 0 0 0 0 0 0 0 0 0 0 0 0 0 0 0 0 0 0 0 0
0 0 0 0 0 0 0 0 0 0 0 0 0 0 0 0 0 0 0 0 0 0 0 0 0 0 0 0 0 0 0 0 0 0 0 0 0 0 0 0 0 0 0
0 0 0 0 0 0 0 0 0 0 0 0 0 0 0 0 0 0 0 0 0 0 0 0 0 0 0 0 0 0 0 0 0 0 0 0 0 0 0 0 0 0 0
0 0 0 0 0 0 0 0 0 0 0 0 0 0 0 0 0 0 0 0 0 0 0 0 0 0 0 0 0 0 0 0 0 0 0 0 0 0 0 0 0 0 0
0 0 0 0 0 0 0 0 0 0 0 0 0 0 0 0 0 0 0 0 0 0 0 0 0 0 0 0 0 0 0 0 0 0 0 0 0 0 0 0 0 0 0
0 0 0 0 0 0 0 0 0 0 0 0 0 0 0 0 0 0 0 0 0 0 0 0 0 0 0 0 0 0 0 0 0 0 0 0 0 0 0 0 0 0 0
0 0 0 0 0 0 0 0 0 0 0 0 0 0 0 0 0 0 0 0 0 0 0 0 0 0 0 0 0 0 0 0 0 0 0 0 0 0 0 0 0 0 0
0 0 0 0 0 0 0 0 0 0 0 0 0 0 0 0 0 0 0 0 0 0 0 0 0 0 0 0 0 0 0 0 0 0 0 0 0 0 0 0 0 0 0
0 0 0 0 0 0 0 0 0 0 0 0 0 0 0 0 0 0 0 0 0 0 0 0 0 0 0 0 0 0 0 0 0 0 0 0 0 0 0 0 0 0 0
0 0 0 0 0 0 0 0 0 0 0 0 0 0 0 0 0 0 0 0 0 0 0 0 0 0 0 0 0 0 0 0 0 0 0 0 0 0 0 0 0 0 0
0 0 0 0 0 0 0 0 0 0 0 0 0 0 0 0 0 0 0 0 0 0 0 0 0 0 0 0 0 0 0 0 0 0 0 0 0 0 0 0 0 0 0
0 0 0 0 0 0 0 0 0 0 0 0 0 0 0 0 0 0 0 0 0 0 0 0 0 0 0 0 0 0 0 0 0 0 0 0 0 0 0 0 0 0 0
0 0 0 0 0 0 0 0 0 0 0 0 0 0 0 0 0 0 0 0 0 0 0 0 0 0 0 0 0 0 0 0 0 0 0 0 0 0 0 0 0 0 0
0 0 0 0 0 0 0 0 0 0 0 0 0 0 0 0 0 0 0 0 0 0 0 0 0 0 0 0 0 0 0 0 0 0 0 0 0 0 0 0 0 0 0
0 0 0 0 0 0 0 0 0 0 0 0 0 0 0 0 0 0 0 0 0 0 0 0 0 0 0 0 0 0 0 0 0 0 0 0 0 0 0 0 0 0 0
0 0 0 0 0 0 0 0 0 0 0 0 0 0 0 0 0 0 0 0 0 0 0 0 0 0 0 0 0 0 0 0 0 0 0 0 0 0 0 0 0 0 0
0 0 0 0 0 0 0 0 0 0 0 0 0 0 0 0 0 0 0 0 0 0 0 0 0 0 0 0 0 0 0 0 0 0 0 0 0 0 0 0 0 0 0
0 0 0 0 0 0 0 0 0 0 0 0 0 0 0 0 0 0 0 0 0 0 0 0 0 0 0 0 0 0 0 0 0 0 0 0 0 0 0 0 0 0 0
0 0 0 0 0 0 0 0 0 0 0 0 0 0 0 0 0 0 0 0 0 0 0 0 0 0 0 0 0 0 0 0 0 0 0 0 0 0 0 0 0 0 0
0 0 0 0 0 0 0 0 0 0 0 0 0 0 0 0 0 0 0 0 0 0 0 0 0 0 0 0 0 0 0 0 0 0 0 0 0 0 0 0 0 0 0
0 0 0 0 0 0 0 0 0 0 0 0 0 0 0 0 0 0 0 0 0 0 0 0 0 0 0 0 0 0 0 0 0 0 0 0 0 0 0 0 0 0 0
Wind_Speed
4 4 4 4 5 4 5 5 5 6 6 6 6 7 7 7 6 5 4 11 13 13 13 13 13 12 11 11 10 9 8 7 7 6 6 5 5 5 4 3 3 3 3
4 4 5 5 5 5 6 6 7 6 6 6 7 8 8 7 6 6 5 8 13 13 13 14 14 13 13 12 12 11 10 9 8 8 7 7 6 6 6 5 4 4 4
5 5 5 5 6 6 6 5 6 5 5 6 7 8 7 7 7 7 7 6 7 12 14 16 15 15 14 14 13 12 12 11 10 9 9 8 8 7 7 7 6 6 5
5 4 5 5 5 5 5 6 6 6 6 6 6 6 6 6 7 7 7 7 6 7 11 15 15 15 15 15 15 14 13 12 12 11 10 9 9 9 8 8 7 7 6
5 4 4 5 5 5 5 6 6 6 6 6 6 5 5 5 6 7 7 8 8 7 7 11 14 14 14 16 16 16 15 14 13 12 12 11 11 10 10 9 9 8 8
4 4 4 5 5 4 5 5 6 6 5 5 5 5 5 5 5 6 7 7 7 9 8 8 8 10 14 15 17 17 16 15 14 14 13 13 12 12 11 11 11 10 9
4 4 4 4 5 5 6 7 5 6 5 3 3 3 4 5 6 6 6 6 7 8 8 9 7 7 7 14 17 18 18 17 16 15 14 14 14 13 13 13 12 12 11
4 4 4 4 5 5 6 6 5 4 4 4 3 2 3 3 5 7 6 7 8 7 8 10 9 8 7 6 9 16 18 18 18 17 16 16 15 15 15 14 14 13 13
4 4 5 4 5 5 5 6 6 7 5 4 4 4 4 5 3 3 7 7 7 7 7 7 9 9 9 7 7 11 15 16 18 18 18 17 17 16 16 16 15 14 14
4 4 4 5 5 4 5 6 6 5 5 5 4 4 3 2 3 3 3 5 7 8 8 7 7 9 9 7 8 11 14 15 18 19 19 18 18 17 17 16 16 16 15
4 4 4 4 4 4 5 5 5 5 5 5 4 3 4 3 3 3 4 3 3 5 6 7 7 7 8 8 7 10 14 16 19 19 20 19 18 17 17 16 16 15 15
3 4 4 3 3 3 4 4 5 5 5 5 4 4 3 3 4 5 6 5 5 4 5 5 6 6 6 7 8 11 13 14 16 18 19 19 18 16 16 16 16 15 14
4 4 4 3 3 3 3 2 3 3 4 4 5 4 4 4 3 4 5 5 5 4 3 4 5 5 5 5 5 9 10 12 14 16 18 19 16 15 15 16 17 16 15
4 5 4 4 3 3 3 2 2 2 1 3 4 3 3 3 3 3 3 4 5 4 4 5 3 4 4 4 6 8 7 11 12 14 16 16 15 13 13 15 16 16 15
4 5 4 3 3 3 2 2 1 1 1 2 2 2 2 2 2 2 2 3 4 6 6 4 3 3 4 4 5 6 6 9 11 13 14 14 13 12 12 13 14 14 14
5 5 5 4 4 4 3 2 1 1 0 1 1 1 2 2 2 2 2 2 3 5 6 3 3 3 4 4 6 6 7 8 11 13 14 13 13 13 12 12 13 14 14
6 6 5 5 4 5 4 2 2 2 2 2 2 1 1 2 2 2 2 2 2 3 7 4 2 3 3 4 4 5 5 6 6 11 12 13 13 13 13 13 13 13 14
6 6 6 5 5 5 5 4 3 3 3 3 3 2 2 2 2 2 2 2 2 3 4 7 4 3 4 4 4 5 4 4 5 8 11 12 12 12 12 13 13 13 14
5 6 6 6 6 6 5 5 4 4 4 3 3 3 3 2 2 2 2 2 2 3 3 5 5 3 3 2 4 4 4 4 5 6 10 11 11 11 12 12 13 13 14
6 6 6 6 6 5 5 5 5 4 4 4 3 3 3 3 3 3 2 3 3 3 3 4 4 3 3 3 2 4 4 4 5 5 7 7 9 11 11 12 13 13 13
6 6 6 7 6 5 6 6 5 4 4 3 3 3 4 5 6 4 3 3 3 3 3 3 4 4 3 3 3 3 6 5 5 4 4 4 5 6 7 10 10 11 13
6 6 6 6 7 6 10 10 7 4 4 3 4 4 4 4 6 7 7 7 6 4 4 4 4 4 5 4 4 4 5 5 5 3 4 6 4 6 6 6 10 13 13
5 6 6 6 6 7 11 11 10 5 5 4 4 4 4 5 6 4 6 7 7 9 8 5 5 5 6 5 5 6 5 6 7 4 4 7 4 7 6 7 13 14 15
4 4 5 5 5 7 11 11 11 6 5 5 5 5 4 5 6 5 4 4 4 5 6 4 4 5 6 5 5 6 7 6 5 4 4 6 5 6 6 6 12 15 15
3 3 4 5 5 7 11 10 9 4 4 5 5 5 5 4 9 11 6 5 5 5 8 9 9 9 11 11 8 5 4 4 6 4 3 4 3 4 5 6 7 12 13
2 3 4 4 4 5 10 11 10 3 3 4 4 5 8 9 11 11 6 5 6 6 6 7 7 8 7 8 10 5 4 5 5 4 2 2 2 2 4 3 3 4 6
Wind_Direction
220 215 212 205 205 200 198 198 201 202 206 209 211 213 219 219 218 211 214 213 210 211 212 211 213 214 217 218 218 217 216 215 216 216 216 219 225 230 229 233 235 233 245
226 219 215 212 210 205 203 203 205 206 211 213 217 217 219 218 221 216 213 214 215 212 213 215 217 220 221 222 223 222 219 219 221 222 223 225 229 231 230 230 240 245 249
227 223 217 215 215 208 204 205 210 210 214 217 222 222 220 218 218 216 212 210 214 217 216 218 220 222 224 225 227 226 222 221 223 225 227 228 228 229 234 236 239 246 248
239 226 223 221 218 209 205 207 208 212 219 220 221 223 221 219 220 218 215 212 210 213 218 220 221 223 225 227 230 230 227 223 224 226 230 233 233 232 236 238 239 241 241
249 232 228 228 218 211 211 214 213 212 218 220 222 223 221 222 222 219 218 216 213 211 211 218 220 222 225 228 231 233 231 228 226 228 231 234 235 234 237 240 240 241 241
254 242 235 227 216 215 214 215 217 217 218 215 223 228 223 224 223 223 222 220 216 214 211 213 216 225 226 228 231 234 235 234 231 230 231 232 233 236 238 239 240 242 240
264 246 246 233 219 218 219 215 213 216 222 200 206 241 247 231 228 227 222 222 222 218 212 214 213 213 221 226 229 233 236 238 236 233 232 232 233 235 238 240 242 243 241
271 261 249 241 228 225 226 219 211 214 221 194 185 195 243 252 239 230 221 220 225 222 220 217 213 214 215 214 225 229 233 237 239 238 235 235 235 236 239 240 241 243 243
282 271 260 250 238 225 225 223 214 211 219 212 193 188 199 222 239 240 224 222 220 220 225 219 216 218 217 215 220 226 229 235 240 241 239 238 238 239 240 240 241 243 245
288 278 266 256 250 239 234 229 226 219 211 216 217 221 222 195 198 249 255 231 223 222 222 223 220 220 218 218 221 222 224 228 237 241 242 240 239 239 241 242 243 244 244
300 298 283 263 251 244 241 239 230 226 220 220 213 206 224 236 227 224 249 244 235 228 223 224 225 222 218 219 221 225 224 228 235 241 243 243 243 243 244 245 245 246 246
316 319 308 293 277 260 246 243 239 229 227 231 227 216 208 212 217 222 238 239 238 235 227 226 226 226 221 219 223 225 224 228 235 241 245 247 246 243 243 247 248 248 247
326 323 317 311 301 288 271 250 246 245 235 236 235 235 235 237 233 228 237 246 245 244 231 227 225 226 225 219 223 227 230 232 237 242 248 252 252 247 244 247 249 249 247
319 320 318 314 310 302 295 275 236 227 237 241 251 246 246 253 252 247 241 242 256 253 236 236 219 218 225 226 230 225 235 234 238 244 250 253 256 251 245 244 247 249 248
329 333 333 329 325 319 313 301 275 236 212 227 248 257 262 271 265 260 259 247 249 261 258 235 225 223 230 233 236 229 236 242 241 244 247 250 251 247 245 245 246 247 247
344 344 351 353 350 350 353 345 333 341 328 279 255 270 287 300 294 282 265 262 248 251 263 259 242 242 235 245 246 235 239 250 243 246 247 246 246 245 244 245 246 246 243
1 360 359 2 4 3 0 11 13 12 16 359 358 357 327 326 308 304 297 285 277 263 263 271 264 272 255 251 257 245 241 238 243 247 251 251 248 245 245 245 245 246 243
10 8 11 18 21 15 12 22 22 21 25 20 14 13 349 348 333 325 314 298 291 285 272 276 274 270 263 268 266 261 257 253 250 253 253 256 254 249 247 247 247 246 243
15 17 20 22 22 19 19 21 23 25 27 28 21 15 355 356 346 339 331 321 309 307 289 283 282 270 266 294 286 279 275 264 268 268 259 256 258 260 257 254 253 250 245
21 22 21 19 18 18 20 16 20 23 20 21 16 14 8 6 346 334 332 325 316 309 302 295 294 287 276 283 280 278 281 270 275 280 267 266 267 265 261 260 256 251 248
23 23 23 20 16 17 20 17 14 14 11 10 7 9 9 8 2 357 350 334 322 306 300 294 292 297 290 295 278 278 277 278 266 256 263 263 262 253 251 255 254 251 249
20 25 26 22 17 14 20 23 21 12 9 10 2 357 354 0 2 360 356 353 345 325 305 292 290 293 293 289 288 287 285 282 272 244 258 269 257 258 255 247 258 260 257
20 23 19 17 11 9 22 25 28 26 19 14 6 358 357 354 351 338 344 346 342 336 324 301 292 288 290 292 288 280 275 276 272 266 261 264 251 257 257 259 262 259 257
18 17 15 9 6 9 19 22 27 31 25 15 6 358 349 338 337 339 335 334 326 325 322 314 290 289 295 295 285 283 278 278 278 265 237 258 255 260 269 257 257 255 254
18 13 9 10 9 0 14 23 26 16 15 5 360 0 353 341 346 350 345 332 329 327 333 332 326 320 320 321 317 306 298 291 289 277 240 247 263 280 275 262 256 256 259
15 12 13 7 4 357 11 18 18 14 6 355 353 351 356 354 350 349 344 335 328 323 324 326 327 325 321 320 324 307 288 282 289 284 249 250 268 299 290 264 250 249 254